Temperature
20 21 20 19 18 17 16 16 16 16 15 15 15 15 15 14 14 14 14 14 14 14 14 14 14 14 14 14 14 13 13 13 14 14 14 15 15 15 16 15 13 12 12
21 21 20 19 18 17 16 16 15 15 15 14 14 14 14 14 14 14 14 14 14 14 14 13 14 14 14 13 13 13 13 14 14 14 14 14 13 14 14 14 12 12 12
20 20 19 19 18 17 16 15 15 15 14 14 14 14 14 14 13 14 14 14 14 14 14 14 14 14 14 14 14 14 14 14 14 14 13 13 13 13 14 14 13 13 13
20 20 19 19 17 16 16 15 15 15 14 14 13 13 13 13 13 14 14 14 14 14 14 14 14 15 15 14 14 14 15 14 14 13 13 13 13 13 14 14 14 14 13
19 19 19 18 17 16 16 16 16 15 15 14 13 13 13 14 14 13 13 13 14 14 14 14 14 15 15 15 15 14 14 14 13 13 13 13 13 13 14 14 14 14 14
18 18 18 18 16 16 15 16 16 16 15 15 14 14 14 14 14 13 13 13 13 14 14 14 14 14 14 14 14 14 14 14 14 13 13 12 13 13 13 14 14 14 14
18 18 18 17 16 15 16 16 16 16 16 15 14 14 14 14 14 14 13 13 14 14 14 14 13 13 13 13 14 14 14 14 14 12 12 12 12 13 13 13 13 13 13
18 18 17 17 16 16 16 16 16 16 16 15 15 14 14 14 14 14 14 13 14 14 14 14 13 13 13 13 14 14 14 14 14 13 12 13 13 13 13 12 12 13 13
18 18 18 17 16 16 16 17 16 16 16 16 15 15 14 14 14 14 14 13 14 14 14 14 13 13 13 13 14 14 14 14 13 13 13 13 13 13 13 13 13 13 13
18 18 17 17 16 16 16 16 17 16 16 16 15 15 14 14 14 14 14 14 14 14 14 13 13 13 13 14 14 14 14 14 13 13 13 13 13 13 13 13 13 13 13
18 17 17 17 16 16 16 16 16 16 16 15 15 15 14 14 14 14 14 14 14 14 14 13 13 13 13 14 14 13 13 13 13 13 13 13 13 13 12 12 12 12 12
18 18 17 17 16 16 15 15 16 16 16 15 15 15 14 13 13 14 14 14 14 14 14 13 13 13 13 13 13 13 13 13 13 12 12 12 12 11 11 11 11 11 10
18 18 17 17 16 16 15 15 15 15 15 15 14 14 14 13 13 13 14 14 14 14 13 13 13 13 13 14 14 13 13 12 11 11 11 11 11 10 10 10 10 10 10
19 18 17 17 16 16 16 15 15 14 15 15 13 13 14 14 14 13 13 13 13 13 13 13 13 13 13 14 13 13 12 11 10 10 10 10 10 10 9 9 9 9 10
20 19 18 17 16 16 15 15 15 14 14 14 14 13 14 14 13 13 13 12 12 13 13 13 13 13 13 13 13 12 11 11 10 10 10 10 10 10 9 9 9 9 9
20 19 18 17 16 16 16 15 15 14 14 14 14 13 13 13 13 13 13 12 12 12 12 13 13 13 13 13 12 11 11 10 9 9 9 9 9 9 9 9 9 9 9
20 20 19 18 17 16 16 15 15 14 14 14 14 13 13 13 13 13 13 12 12 12 12 13 13 13 13 12 12 11 10 10 9 8 8 8 8 8 9 9 9 9 9
20 20 19 18 17 17 17 16 15 14 14 14 14 13 13 13 13 13 13 12 12 12 12 12 12 12 12 12 12 11 10 9 9 8 7 7 7 8 8 8 8 8 8
20 20 20 19 18 17 17 17 16 15 14 14 14 13 13 13 13 13 12 12 12 12 12 12 12 12 12 12 11 11 10 9 8 8 7 7 7 7 7 7 8 8 8
20 20 20 19 18 17 17 17 15 15 14 14 14 13 13 13 13 13 12 12 12 12 12 12 12 11 11 11 11 10 9 8 8 7 7 7 7 7 7 7 7 7 7
19 20 20 19 18 17 17 16 16 15 14 14 14 13 14 13 13 12 12 12 12 12 11 11 11 11 11 11 10 9 8 8 8 7 7 7 7 6 6 6 7 7 7
19 19 19 19 18 17 17 17 16 14 14 14 13 13 13 13 13 12 12 12 12 12 11 11 11 10 10 10 10 9 8 7 7 7 7 7 6 6 6 6 6 6 6
18 18 18 18 18 17 16 15 14 13 13 13 13 13 13 13 12 12 11 11 11 11 11 11 10 10 9 9 9 8 8 7 7 7 6 6 5 5 5 5 5 5 4
17 18 18 18 17 17 16 15 14 14 14 13 13 13 13 12 12 12 11 11 11 11 11 10 10 9 9 8 8 7 6 6 5 5 5 5 4 4 4 4 4 4 4
17 17 17 17 17 16 16 15 14 14 14 13 13 12 12 12 11 11 11 11 11 11 10 10 9 8 8 7 7 6 6 5 4 3 3 4 3 3 3 3 3 2 2
17 17 17 17 17 16 15 14 13 13 13 13 12 12 12 11 11 11 10 10 10 10 10 9 9 8 7 7 6 5 5 4 3 2 2 2 2 2 2 2 1 1 0
Wind_Speed
11 16 22 21 19 16 15 13 12 10 9 10 11 12 14 15 15 15 14 13 13 12 12 12 12 15 17 17 16 14 12 10 8 5 4 5 7 8 8 8 6 5 3
16 19 22 21 19 17 16 14 12 10 10 12 12 13 14 14 14 14 13 13 13 13 13 13 12 14 15 14 13 12 10 8 5 4 3 1 4 9 9 8 7 7 7
19 20 20 21 20 18 16 15 13 11 13 14 14 13 13 13 13 13 13 13 14 13 13 13 13 13 13 13 11 10 9 6 4 6 8 4 6 9 8 8 7 5 5
18 19 19 22 20 19 17 15 13 12 13 14 13 12 12 12 12 13 13 13 13 13 13 12 12 12 12 11 10 9 7 4 6 9 7 6 7 8 7 6 6 6 6
17 19 21 23 20 19 17 16 14 12 12 13 12 11 11 10 10 11 12 12 12 11 11 10 10 10 9 8 8 7 6 6 9 11 7 6 11 8 6 5 5 5 6
16 19 22 22 20 19 17 16 14 13 12 12 11 11 10 8 7 9 11 12 10 9 8 8 8 8 7 6 7 6 5 7 11 8 4 8 11 7 6 5 5 5 6
15 20 23 22 21 19 18 16 14 13 12 11 10 10 10 7 5 9 12 11 9 7 7 7 7 8 7 8 7 5 3 7 11 7 5 10 10 8 6 7 7 7 7
16 18 22 23 22 20 19 18 15 13 11 10 10 10 10 7 5 11 14 12 8 7 7 7 8 8 9 7 5 4 4 7 9 8 8 13 11 9 8 8 9 9 9
16 16 16 19 19 19 19 19 17 13 11 11 10 11 11 9 9 14 14 12 9 8 8 9 9 8 7 6 5 4 6 9 9 6 11 12 12 10 9 9 9 10 10
12 15 13 15 17 16 16 19 19 15 12 11 12 14 12 11 13 15 13 12 11 10 9 8 7 7 6 5 3 5 8 11 5 8 12 12 12 10 9 8 8 9 10
8 13 14 13 14 16 16 17 18 17 13 12 13 13 12 11 12 12 14 13 12 11 9 7 6 5 4 3 3 6 8 10 10 10 12 12 11 10 10 11 12 14 15
7 8 12 14 13 13 14 15 13 14 14 13 13 13 12 9 12 14 14 14 13 11 9 6 4 1 1 2 5 7 6 10 10 10 12 14 12 12 15 16 17 18 18
11 8 6 10 11 11 8 11 9 11 13 14 15 16 11 10 12 13 10 10 10 10 6 4 3 3 6 4 5 7 7 5 6 11 13 14 12 13 14 15 16 16 17
14 13 8 8 9 10 9 7 6 6 8 7 10 13 9 5 5 7 7 9 9 7 5 5 5 7 7 8 8 7 8 7 6 11 13 14 12 12 13 14 14 15 15
11 14 12 10 10 9 9 7 6 4 6 8 9 10 11 4 4 4 5 6 8 8 6 5 6 6 5 6 7 6 5 6 6 11 12 14 13 13 13 13 13 14 14
9 12 13 12 11 10 8 8 7 5 7 9 9 10 13 9 5 4 4 5 7 8 6 6 6 4 4 4 4 4 4 5 5 9 13 12 13 12 12 12 13 13 13
9 11 13 14 12 11 9 8 7 6 8 6 9 12 12 12 10 7 5 4 5 8 9 8 6 5 3 4 6 4 3 3 3 5 10 11 11 10 10 11 12 13 13
9 11 13 13 14 13 10 8 6 5 7 6 10 11 13 15 14 9 5 5 8 10 7 4 5 4 5 5 5 4 3 1 3 5 7 10 9 7 6 8 11 11 12
10 10 12 13 15 15 12 9 7 5 7 7 9 9 12 16 16 11 5 6 10 6 4 5 5 4 4 5 5 3 2 1 3 3 4 7 8 6 6 7 10 10 12
11 10 11 12 14 14 12 8 7 6 7 6 6 9 14 15 16 12 7 8 8 5 4 4 4 4 4 4 4 2 0 2 2 2 2 5 6 5 6 8 10 11 13
10 10 10 12 12 12 12 11 11 8 6 6 6 11 14 15 15 11 6 6 6 6 6 6 4 5 4 4 4 4 2 1 1 3 3 3 2 4 6 6 7 9 11
11 9 10 11 12 12 12 10 7 6 6 6 6 7 12 14 15 13 8 8 8 7 7 6 4 3 3 4 4 3 4 3 3 1 2 2 1 3 3 4 6 7 10
12 11 9 11 13 13 13 9 9 8 6 4 5 5 6 12 13 13 11 8 8 7 6 6 5 4 2 3 4 3 3 2 4 4 2 1 2 2 2 4 5 5 9
13 12 11 11 13 14 15 14 16 11 8 7 6 6 7 9 12 14 13 10 8 7 7 6 6 4 3 2 2 2 2 3 1 4 5 4 5 5 5 4 5 7 9
11 12 12 11 12 14 16 16 15 10 7 10 10 11 9 8 9 13 13 10 8 7 8 7 6 4 3 3 2 2 2 1 2 3 5 5 5 5 6 5 6 9 9
9 9 11 13 13 15 16 16 16 15 15 17 16 14 10 8 8 10 12 9 6 7 8 7 6 5 3 3 1 1 1 0 1 1 4 5 6 5 6 7 7 7 8
Wind_Direction
131 139 145 138 133 128 122 114 106 100 101 107 110 112 112 108 104 99 92 81 72 68 68 65 62 59 59 63 68 70 67 61 55 44 47 66 69 56 46 41 11 348 67
135 141 146 139 135 131 125 118 111 109 112 109 107 111 110 109 107 103 95 83 75 73 72 70 68 66 63 62 61 60 57 50 35 348 331 107 94 71 53 37 27 34 36
133 141 146 140 137 134 129 123 116 114 115 110 106 108 109 110 109 103 95 86 82 81 78 74 70 67 65 62 61 60 56 45 357 322 308 232 142 75 56 33 24 20 13
135 144 147 142 141 138 134 128 123 121 121 116 112 110 109 113 113 105 98 92 89 88 86 80 73 69 65 61 56 53 48 19 329 321 322 88 100 73 53 30 7 360 352
138 148 145 146 145 143 140 135 131 129 128 122 115 106 104 114 119 112 105 102 98 95 90 82 75 70 65 63 58 51 35 352 323 306 296 87 92 66 45 19 353 338 331
143 140 145 148 148 147 145 143 140 136 133 126 115 105 98 105 119 121 117 115 109 99 84 71 65 71 72 66 65 58 25 338 318 310 37 72 89 52 23 355 336 325 312
141 136 148 150 154 153 151 148 145 144 140 129 120 111 99 97 123 141 132 126 116 96 73 57 54 70 74 71 70 59 10 324 312 315 58 78 68 35 2 341 333 328 317
130 139 151 157 160 160 157 151 150 152 150 142 134 122 104 88 118 154 142 133 121 98 77 64 67 81 83 75 60 34 339 321 329 353 60 74 42 20 356 345 343 344 344
132 141 151 160 164 164 161 154 153 156 156 154 145 129 115 96 103 136 138 132 118 100 89 84 84 89 87 77 55 10 337 325 315 339 67 54 29 10 354 351 350 349 351
138 146 156 161 166 167 165 159 155 157 158 157 144 136 132 123 119 125 121 120 116 110 103 97 96 101 100 91 53 352 331 325 332 47 65 42 21 1 352 358 5 16 25
150 154 162 166 169 168 167 165 157 156 157 152 149 153 157 162 147 128 123 124 125 124 120 117 121 132 132 113 14 339 335 353 358 65 53 39 23 15 28 45 50 51 49
181 179 169 172 166 162 164 163 163 161 160 170 174 179 198 193 145 130 133 136 140 139 136 140 146 177 138 92 351 338 21 8 354 72 53 47 43 51 59 58 56 54 51
178 194 191 157 155 155 153 168 170 168 167 194 185 185 188 128 125 137 141 149 154 155 157 166 174 65 48 49 9 10 17 5 6 80 64 58 55 57 56 54 51 47 46
172 179 187 154 155 158 159 173 165 162 167 189 169 170 153 145 168 158 152 161 150 131 89 63 53 53 29 31 22 15 9 9 25 97 77 70 64 61 56 53 48 43 39
176 172 176 171 169 168 164 169 168 163 164 169 160 167 153 146 146 111 101 100 97 100 88 64 50 31 24 24 6 10 9 3 27 99 94 84 75 67 58 51 44 37 31
189 170 172 178 174 170 170 172 172 167 169 167 158 173 160 154 128 106 91 87 88 87 72 62 64 34 34 13 342 354 12 14 40 96 118 98 88 76 61 47 37 28 21
196 177 173 179 176 173 177 175 172 171 173 159 160 177 160 138 125 115 112 109 110 97 73 48 43 38 33 5 356 8 29 21 24 88 113 121 104 87 66 44 28 18 12
207 185 181 181 176 173 176 178 176 175 168 159 163 167 149 134 128 118 114 114 105 92 85 67 34 37 32 15 349 345 342 57 41 77 92 92 87 73 59 38 19 9 4
221 195 181 175 174 173 172 177 185 179 165 161 163 156 140 129 127 122 116 113 102 93 87 87 60 45 27 358 323 304 330 64 110 76 87 104 95 66 38 29 13 360 353
227 202 180 170 170 167 166 174 186 183 166 154 142 136 129 132 130 125 123 116 113 107 102 103 108 69 32 345 322 319 237 95 128 135 70 93 115 102 56 37 23 5 350
235 209 183 171 169 164 170 180 187 181 150 127 124 131 135 137 134 132 122 118 116 107 91 76 81 77 28 357 8 346 314 213 153 127 94 72 78 92 59 36 23 0 346
237 218 188 175 172 170 175 180 171 133 112 100 105 118 135 136 135 134 125 123 117 110 98 85 70 86 52 37 42 16 359 352 348 42 104 105 32 77 37 13 359 342 343
225 223 203 186 175 170 162 153 133 109 95 97 111 122 130 134 133 132 128 125 122 115 109 98 81 79 81 57 58 75 73 336 324 322 318 38 17 16 344 324 311 325 334
218 217 212 194 174 163 159 163 164 165 158 160 147 139 136 133 131 129 128 125 120 119 120 114 99 91 81 79 64 52 103 125 53 319 318 342 6 345 326 316 311 304 305
224 212 207 188 167 160 163 169 171 163 139 134 138 145 143 134 127 126 127 125 125 121 117 110 102 87 80 82 68 36 30 43 194 227 286 310 327 319 320 311 299 285 278
234 219 201 179 165 161 168 173 173 166 153 150 154 156 149 139 129 125 126 123 120 118 119 119 114 104 94 91 65 65 100 74 338 310 288 303 299 294 302 290 281 268 266
Height
1498 1500 1502 1504 1505 1507 1509 1510 1511 1512 1513 1515 1517 1519 1521 1522 1523 1524 1524 1525 1525 1525 1525 1526 1527 1528 1529 1530 1531 1531 1532 1533 1534 1534 1533 1533 1533 1533 1532 1532 1534 1535 1535
1497 1499 1502 1504 1506 1508 1509 1510 1511 1512 1513 1515 1517 1519 1521 1522 1523 1524 1524 1524 1524 1525 1525 1525 1526 1528 1529 1531 1531 1532 1533 1533 1533 1533 1533 1533 1533 1533 1532 1533 1534 1534 1534
1497 1499 1502 1505 1507 1508 1510 1511 1512 1513 1514 1515 1518 1520 1522 1523 1524 1525 1525 1525 1525 1525 1525 1526 1527 1529 1530 1531 1532 1532 1532 1533 1533 1533 1533 1533 1533 1534 1533 1533 1534 1534 1534
1497 1499 1502 1505 1507 1509 1510 1512 1513 1514 1514 1516 1517 1519 1521 1524 1525 1526 1526 1526 1526 1526 1527 1528 1529 1530 1530 1531 1532 1532 1532 1533 1533 1533 1534 1535 1535 1534 1534 1533 1534 1533 1533
1498 1500 1502 1505 1507 1509 1511 1512 1514 1514 1515 1516 1517 1519 1521 1524 1526 1527 1527 1528 1528 1529 1529 1529 1530 1531 1531 1532 1532 1533 1533 1533 1533 1534 1534 1535 1534 1534 1534 1533 1533 1533 1533
1499 1500 1503 1506 1507 1509 1511 1513 1514 1515 1516 1516 1518 1519 1522 1524 1526 1527 1528 1529 1530 1530 1530 1531 1531 1531 1532 1532 1533 1533 1533 1533 1533 1534 1535 1535 1534 1534 1533 1532 1532 1532 1532
1500 1500 1503 1506 1508 1509 1511 1513 1514 1515 1516 1517 1519 1520 1522 1524 1526 1528 1529 1530 1531 1531 1531 1532 1532 1532 1532 1533 1533 1532 1532 1533 1533 1534 1534 1533 1533 1532 1532 1531 1531 1531 1531
1499 1500 1503 1505 1507 1509 1511 1513 1514 1515 1516 1518 1519 1521 1522 1524 1526 1528 1529 1531 1531 1532 1532 1532 1533 1533 1533 1533 1533 1532 1532 1532 1532 1533 1533 1531 1531 1531 1530 1530 1530 1530 1530
1499 1500 1502 1504 1506 1509 1511 1512 1514 1515 1516 1518 1519 1521 1523 1524 1526 1527 1529 1530 1531 1532 1533 1533 1533 1533 1533 1533 1532 1532 1532 1531 1531 1531 1530 1530 1529 1529 1529 1528 1528 1528 1527
1499 1499 1501 1503 1505 1507 1509 1511 1513 1514 1516 1517 1519 1521 1523 1524 1526 1527 1528 1529 1531 1532 1532 1532 1532 1532 1532 1531 1531 1531 1531 1531 1530 1529 1528 1528 1528 1527 1526 1526 1526 1525 1525
1499 1500 1500 1502 1504 1506 1508 1510 1512 1513 1515 1517 1519 1521 1523 1524 1525 1526 1528 1529 1530 1531 1532 1532 1532 1531 1531 1530 1530 1530 1530 1529 1528 1526 1526 1525 1525 1524 1523 1523 1523 1522 1522
1498 1500 1501 1501 1503 1505 1507 1509 1510 1512 1514 1516 1518 1520 1522 1524 1524 1525 1527 1528 1529 1529 1531 1531 1531 1530 1530 1529 1529 1528 1527 1527 1526 1523 1523 1522 1522 1521 1521 1521 1521 1520 1520
1494 1497 1500 1501 1502 1504 1505 1507 1509 1510 1512 1515 1516 1519 1521 1523 1524 1525 1525 1526 1527 1528 1529 1530 1529 1529 1529 1528 1527 1526 1525 1523 1522 1520 1520 1520 1519 1519 1519 1519 1518 1518 1518
1490 1493 1497 1499 1500 1502 1504 1506 1508 1509 1511 1513 1516 1517 1519 1520 1523 1524 1524 1525 1526 1527 1528 1528 1528 1528 1527 1526 1524 1523 1522 1521 1520 1518 1518 1518 1517 1516 1516 1517 1517 1517 1516
1488 1488 1492 1495 1497 1500 1502 1504 1506 1508 1509 1512 1514 1516 1518 1519 1521 1522 1523 1525 1525 1526 1526 1527 1527 1526 1525 1523 1521 1520 1519 1518 1518 1516 1516 1516 1515 1515 1515 1515 1515 1515 1515
1486 1486 1488 1491 1493 1496 1499 1501 1503 1506 1508 1510 1511 1514 1517 1518 1520 1521 1522 1523 1524 1525 1525 1525 1524 1524 1522 1521 1519 1517 1517 1516 1516 1515 1514 1514 1514 1513 1514 1514 1514 1513 1513
1482 1483 1484 1487 1489 1492 1495 1497 1500 1503 1506 1508 1510 1512 1515 1516 1518 1519 1521 1522 1523 1523 1523 1523 1522 1521 1520 1518 1516 1515 1514 1514 1514 1514 1513 1512 1512 1512 1513 1512 1512 1511 1510
1477 1478 1480 1482 1484 1487 1490 1492 1496 1499 1503 1505 1507 1510 1512 1513 1515 1517 1518 1520 1521 1521 1522 1522 1521 1519 1517 1515 1514 1513 1512 1512 1512 1512 1512 1512 1511 1511 1511 1510 1510 1509 1508
1472 1474 1475 1477 1479 1482 1485 1487 1491 1495 1499 1502 1504 1506 1507 1509 1512 1514 1516 1517 1519 1519 1520 1520 1519 1517 1515 1513 1512 1511 1511 1510 1510 1511 1512 1511 1510 1510 1509 1508 1508 1507 1505
1465 1468 1469 1471 1474 1477 1480 1483 1486 1490 1494 1497 1500 1501 1503 1506 1508 1511 1513 1515 1517 1518 1518 1517 1517 1515 1514 1512 1511 1510 1510 1510 1509 1510 1510 1510 1509 1508 1507 1506 1505 1504 1502
1458 1460 1462 1464 1467 1471 1474 1477 1480 1484 1488 1491 1494 1496 1499 1502 1505 1508 1510 1512 1514 1515 1516 1515 1515 1514 1513 1512 1511 1510 1510 1510 1509 1509 1508 1508 1508 1506 1505 1504 1502 1500 1498
1450 1453 1456 1457 1461 1464 1467 1471 1475 1479 1482 1485 1488 1492 1495 1498 1501 1504 1507 1509 1511 1512 1513 1514 1513 1513 1512 1511 1510 1509 1509 1511 1509 1509 1508 1507 1506 1504 1503 1501 1499 1496 1494
1443 1446 1449 1451 1454 1457 1462 1467 1470 1473 1475 1479 1483 1487 1491 1494 1497 1500 1503 1506 1507 1509 1511 1511 1512 1511 1510 1510 1509 1509 1508 1508 1508 1507 1506 1505 1503 1502 1500 1498 1495 1492 1490
1435 1439 1442 1446 1448 1450 1455 1459 1461 1463 1466 1471 1476 1481 1486 1491 1494 1497 1500 1502 1504 1506 1508 1509 1510 1509 1509 1508 1507 1506 1506 1506 1506 1504 1503 1502 1501 1499 1496 1493 1490 1488 1485
1428 1431 1435 1439 1440 1442 1447 1451 1455 1458 1461 1466 1471 1477 1482 1486 1490 1493 1496 1499 1502 1504 1505 1507 1507 1507 1507 1506 1505 1504 1503 1502 1502 1501 1498 1496 1495 1494 1491 1489 1486 1482 1480
1422 1424 1427 1430 1432 1436 1440 1444 1448 1451 1454 1459 1465 1471 1476 1481 1485 1489 1493 1496 1499 1501 1503 1504 1505 1505 1504 1504 1503 1502 1500 1500 1499 1498 1495 1491 1488 1486 1485 1482 1480 1477 1475